Weather observations for the past three days for
Ironwood, Gogebic-Iron County Airport
Imperial (Metric)
Date Time (cdt) Wind (mph) Vis. (mi.) Weather Sky Cond. Temperature (ºF) Relative Humidity Wind Chill (°F) Heat Index (°F) Pressure Precipitation (in)
Air Dwpt 6 hour altimeter (in) sea level (mb) 1 hr 3 hr 6 hr
Max. Min.
16 09:56 W 7 10.00 Partly Cloudy FEW017 SCT048 69.1 62.1 78% 29.84 1010.1
16 08:56 W 8 10.00 Fair CLR 64.9 62.1 90% 29.83 1010.0
16 07:56 W 7 10.00 A Few Clouds FEW004 62.1 62.1 100% 29.82 1009.6
16 06:56 W 5 9.00 A Few Clouds FEW004 60.1 60.1 60.1 59 100% 29.81 1009.2 0.01
16 05:56 Calm 5.00 Fog/Mist OVC004 59 59 100% 29.8 1009.1
16 04:56 SW 5 0.75 Fog/Mist OVC002 60.1 60.1 100% 29.8 1008.6 0.01
16 03:56 W 7 4.00 Fog/Mist OVC002 60.1 60.1 100% 29.79 1008.3
16 02:56 SW 5 0.25 Fog OVC002 60.1 60.1 100% 29.79 1008.2
16 01:56 SW 3 0.25 Fog OVC002 59 59 100% 29.79 1008.4
16 00:56 W 6 0.50 Fog BKN002 55 55 64.9 55 100% 29.79 1008.4
15 23:56 Calm 0.50 Fog VV002 55.9 55.9 100% 29.78 1008.0
15 22:56 Calm 0.75 Fog/Mist VV002 57 57 100% 29.77 1007.7
15 21:56 E 3 9.00 Fair CLR 60.1 60.1 100% 29.77 1007.7
15 20:56 SE 6 10.00 Overcast BKN006 OVC065 63 63 100% 29.75 1007.1
15 19:56 N 3 10.00 Fair CLR 64 63 96% 29.73 1006.5
15 18:56 N 7 10.00 Partly Cloudy FEW085 SCT120 64.9 64 82.9 64 97% 29.73 1006.5 0.04
15 17:56 NW 6 6.00 Thunderstorm in Vicinity Rain Fog/Mist BKN007 OVC038 64 64 100% 29.74 1007.0 0.06
15 16:56 N 12 10.00 Thunderstorm in Vicinity OVC050 73 68 84% 29.7 1005.7
15 15:56 W 9 10.00 Mostly Cloudy BKN060 79 69.1 72% 82 29.69 1005.0
15 14:56 Calm 10.00 Thunderstorm Light Rain FEW029 SCT039 73 69.1 87% 29.7 1005.4
15 13:56 SW 10 G 16 10.00 Partly Cloudy FEW046 SCT055 82 66 58% 84 29.7 1005.4
15 12:56 W 13 10.00 Fair CLR 81 64 82 59 57% 83 29.74 1006.5
15 11:56 SW 13 10.00 NULL NULL 80.1 63 56% 81 29.78 1007.8
15 10:56 S 6 10.00 Fair CLR 75.9 61 60% 78 29.8 1008.7
15 09:56 SE 6 3.00 Fair with Haze CLR 73.9 61 64% 29.81 1009.0
15 08:56 Vrbl 3 10.00 Fair CLR 72 60.1 66% 29.82 1009.2
15 07:56 S 6 10.00 Fair CLR 68 59 73% 29.83 1009.6
15 06:56 Calm 10.00 Fair CLR 59 57.9 61 54 96% 29.84 1010.1
15 05:56 W 5 10.00 Fair CLR 55 55 100% 29.85 1010.4
15 04:56 Calm 7.00 Fair CLR 54 54 100% 29.85 1010.5
15 03:56 Calm 4.00 Fog/Mist CLR 57 57 100% 29.86 1010.8
15 02:56 Calm 2.50 Fog/Mist FEW002 57 57 100% 29.86 1010.7
15 01:56 Calm 0.50 Fog VV002 57.9 57.9 100% 29.87 1010.9
15 00:56 W 3 0.50 Fog VV002 60.1 60.1 82 60.1 100% 29.88 1011.1
14 23:56 Calm 7.00 Fair CLR 63 63 100% 29.88 1011.3
14 22:56 Calm 1.50 Fog/Mist CLR 64 64 100% 29.87 1011.1
14 21:56 Calm 10.00 Fair CLR 68 66 93% 29.87 1010.9
14 20:56 Calm 10.00 Fair CLR 73 66.9 81% 29.86 1010.6
14 19:56 NW 3 10.00 Fair CLR 79 66.9 67% 81 29.87 1010.6
14 18:56 NW 7 9.00 A Few Clouds FEW055 82 64.9 82.9 79 56% 84 29.86 1010.3
14 17:56 W 13 G 17 10.00 A Few Clouds FEW038 82.9 68 61% 86 29.85 1010.2
14 16:56 SW 6 10.00 Partly Cloudy SCT044 80.1 72 76% 84 29.85 1010.3
14 15:56 W 7 10.00 A Few Clouds FEW032 82 71.1 69% 86 29.85 1010.1
14 13:56 W 12 10.00 Mostly Cloudy BKN033 82 70 67% 86 29.85 1010.1
14 12:56 W 12 10.00 Partly Cloudy SCT032 81 70 82 66.9 69% 84 29.86 1010.3
14 11:56 W 9 10.00 Fair CLR 80.1 69.1 69% 83 29.87 1010.8
14 10:56 W 12 10.00 A Few Clouds FEW029 79 68 69% 81 29.88 1011.1
14 09:56 W 12 10.00 Fair CLR 78.1 66 67% 80 29.88 1011.2
14 08:56 SW 13 10.00 Fair CLR 75 66 74% 76 29.89 1011.4
14 07:56 SW 9 10.00 Fair CLR 72 66 82% 29.88 1011.1
14 06:56 Calm 10.00 Fair CLR 66.9 66 69.1 64 97% 29.86 1010.6
14 05:56 Calm 10.00 Fair CLR 64 64 100% 29.87 1010.9
14 04:56 S 6 10.00 Fair CLR 68 64.9 90% 29.87 1010.9
14 03:56 SW 12 G 17 10.00 Fair CLR 69.1 66 90% 29.85 1010.2
14 01:56 SW 5 10.00 Fair CLR 68 66 93% 29.89 1011.7
14 00:56 SW 6 10.00 Fair CLR 69.1 66 77 69.1 90% 29.92 1012.5
13 23:56 S 7 10.00 Fair CLR 70 66 87% 29.96 1013.7
13 22:56 S 10 10.00 Fair CLR 71.1 66.9 87% 29.96 1013.8
13 21:56 S 6 10.00 A Few Clouds FEW040 71.1 66 84% 29.96 1014.0
13 20:56 S 5 10.00 Fair CLR 73 66.9 81% 29.94 1013.3
13 19:56 S 7 10.00 Fair CLR 75 68 79% 76 29.95 1013.5
13 18:56 S 8 10.00 Fair CLR 77 68 79 72 74% 79 29.94 1013.3
13 17:56 S 13 G 18 10.00 Fair CLR 79 68 69% 81 29.95 1013.6
13 16:56 SW 12 G 20 10.00 Fair CLR 79 66.9 67% 81 29.97 1014.2
13 15:56 S 9 10.00 Mostly Cloudy BKN090 75 64 69% 77 30 1015.3
13 14:56 S 14 G 20 10.00 Mostly Cloudy BKN110 73 64 74% 30 1015.5
13 13:56 Vrbl 7 G 16 10.00 Light Rain FEW033 72 64 76% 30 1015.3
13 12:56 S 15 G 24 10.00 Mostly Cloudy FEW034 SCT041 BKN085 75.9 63 82 68 64% 78 30.04 1016.7
13 11:56 SW 10 G 20 10.00 Mostly Cloudy FEW035 BKN060 81 66.9 62% 83 30.04 1016.7
13 10:56 S 10 10.00 A Few Clouds FEW031 79 66.9 67% 81 30.06 1017.3
Date Time (cdt) Wind (mph) Vis. (mi.) Weather Sky Cond. Air Dwpt Max. Min. Relative Humidity Wind Chill (°F) Heat Index (°F) altimeter (in) sea level (mb) 1 hr 3 hr 6 hr
6 hour
Temperature (ºF) Pressure Precipitation (in)